Location: Ida Center
(41.8662°N, 83.5713°W)
Time: 10:35:27
(UTC+00:00)

Cosmos 1933 Rocket - Pass Details

Date: 17 November 2019
Orbit: 606 x 631 km, 82.5° (Epoch: 12 December)

Event Time Altitude Azimuth Distance (km) Brightness Sun altitude
Rises 23:26:06 0° 3° (N) 2,873 6.8 -13.8°
Reaches altitude 10° 23:28:36 10° 16° (NNE) 1,965 5.9 -14.3°
Maximum altitude 23:32:19 27° 75° (ENE) 1,183 4.4 -15.0°
Enters shadow 23:33:44 22° 106° (ESE) 1,327 4.7 -15.2°
Exits shadow 23:37:33 - 142° (SE) 2,511 6.4 -15.9°
Sets 23:38:29 0° 146° (SE) 2,861 6.7 -16.1°
